TAM3486 SBSV-SBFZ

Flight info

Callsign TAM3486
Flight time 1h 26m
Altitude 35000
Route FROTI UZ77 ILRIB DCT DOTKU
Aircraft A320/M-SDE3FGHIRWY/LB1

Departure

Time 2026-04-30 10:33
Airport Deputado Luiz Eduardo Magalhães International Airport (SBSV)

Arrival

Time 2026-04-30 11:59
Airport Pinto Martins International Airport (SBFZ)
Time Latitude Longitude Altitude Speed Heading
2026-04-30 10:17 -12.91488 -38.33343 29 ft 0 kts 349°
2026-04-30 10:25 -12.91494 -38.33341 30 ft 4 kts 350°
2026-04-30 10:25 -12.91521 -38.33339 28 ft 4 kts
2026-04-30 10:25 -12.91545 -38.33346 29 ft 4 kts 43°
2026-04-30 10:25 -12.91554 -38.33359 26 ft 0 kts 79°
2026-04-30 10:27 -12.91546 -38.33322 27 ft 16 kts 78°
2026-04-30 10:28 -12.91522 -38.33200 25 ft 16 kts 78°
2026-04-30 10:28 -12.91473 -38.33149 27 ft 9 kts 24°
2026-04-30 10:28 -12.91417 -38.33142 26 ft 7 kts 355°
2026-04-30 10:28 -12.91375 -38.33149 27 ft 5 kts 350°
2026-04-30 10:29 -12.91344 -38.33156 27 ft 4 kts 348°
2026-04-30 10:29 -12.91322 -38.33161 27 ft 3 kts 346°
2026-04-30 10:29 -12.91312 -38.33164 27 ft 0 kts 343°
2026-04-30 10:29 -12.91293 -38.33169 27 ft 4 kts 343°
2026-04-30 10:30 -12.91267 -38.33177 27 ft 3 kts 344°
2026-04-30 10:30 -12.91247 -38.33183 27 ft 3 kts 343°
2026-04-30 10:30 -12.91219 -38.33202 27 ft 5 kts 309°
2026-04-30 10:30 -12.91213 -38.33234 30 ft 4 kts 273°
2026-04-30 10:31 -12.91215 -38.33265 27 ft 4 kts 262°
2026-04-30 10:31 -12.91219 -38.33294 28 ft 4 kts 262°
2026-04-30 10:31 -12.91219 -38.33327 27 ft 6 kts 275°
2026-04-30 10:31 -12.91186 -38.33401 23 ft 17 kts 298°
2026-04-30 10:32 -12.91103 -38.33439 22 ft 14 kts 38°
2026-04-30 10:32 -12.91065 -38.33295 23 ft 46 kts 79°
2026-04-30 10:32 -12.90956 -38.32743 33 ft 110 kts 78°
2026-04-30 10:32 -12.90769 -38.31799 44 ft 159 kts 79°
2026-04-30 10:33 -12.90542 -38.30655 583 ft 164 kts 80°
2026-04-30 10:33 -12.90319 -38.29509 1273 ft 163 kts 81°
2026-04-30 10:33 -12.90096 -38.28335 1701 ft 180 kts 81°
2026-04-30 10:33 -12.89730 -38.27022 1981 ft 205 kts 61°
2026-04-30 10:34 -12.88547 -38.26076 2289 ft 238 kts 19°
2026-04-30 10:34 -12.86791 -38.25928 2710 ft 265 kts 358°
2026-04-30 10:34 -12.84937 -38.26197 3453 ft 275 kts 352°
2026-04-30 10:34 -12.83040 -38.26601 4291 ft 280 kts 350°
2026-04-30 10:35 -12.81124 -38.27018 5118 ft 285 kts 351°
2026-04-30 10:35 -12.79145 -38.27416 5765 ft 291 kts 352°
2026-04-30 10:35 -12.77167 -38.27773 5963 ft 291 kts 353°
2026-04-30 10:35 -12.75154 -38.28102 6014 ft 291 kts 354°
2026-04-30 10:36 -12.73151 -38.28409 6020 ft 290 kts 354°
2026-04-30 10:36 -12.71149 -38.28697 6047 ft 291 kts 356°
2026-04-30 10:36 -12.69131 -38.28878 6756 ft 294 kts 359°
2026-04-30 10:36 -12.67084 -38.28997 7627 ft 294 kts
2026-04-30 10:37 -12.65030 -38.29096 8482 ft 296 kts
2026-04-30 10:37 -12.62979 -38.29194 9292 ft 298 kts
2026-04-30 10:37 -12.60882 -38.29298 10075 ft 301 kts
2026-04-30 10:37 -12.58759 -38.29407 10460 ft 318 kts
2026-04-30 10:38 -12.56464 -38.29528 10685 ft 338 kts
2026-04-30 10:38 -12.54068 -38.29665 11221 ft 346 kts 360°
2026-04-30 10:38 -12.51662 -38.29811 11849 ft 350 kts 359°
2026-04-30 10:38 -12.49204 -38.29962 12491 ft 354 kts 359°
2026-04-30 10:39 -12.46756 -38.30111 13103 ft 357 kts 359°
2026-04-30 10:39 -12.44254 -38.30261 13706 ft 360 kts 359°
2026-04-30 10:39 -12.41760 -38.30408 14223 ft 363 kts 359°
2026-04-30 10:39 -12.39213 -38.30554 14751 ft 366 kts 359°
2026-04-30 10:40 -12.36653 -38.30696 15278 ft 368 kts 360°
2026-04-30 10:40 -12.34112 -38.30811 15802 ft 370 kts
2026-04-30 10:40 -12.31514 -38.30912 16325 ft 372 kts
2026-04-30 10:40 -12.28940 -38.31006 16837 ft 375 kts
2026-04-30 10:41 -12.26316 -38.31100 17350 ft 378 kts
2026-04-30 10:41 -12.23672 -38.31195 17858 ft 380 kts
2026-04-30 10:41 -12.21013 -38.31292 18358 ft 383 kts
2026-04-30 10:41 -12.18366 -38.31391 18789 ft 385 kts
2026-04-30 10:42 -12.15671 -38.31495 19229 ft 387 kts
2026-04-30 10:42 -12.12970 -38.31600 19666 ft 389 kts
2026-04-30 10:42 -12.10240 -38.31707 20101 ft 392 kts
2026-04-30 10:42 -12.07498 -38.31814 20526 ft 394 kts
2026-04-30 10:43 -12.04781 -38.31919 20938 ft 397 kts
2026-04-30 10:43 -12.02001 -38.32024 21362 ft 399 kts
2026-04-30 10:43 -11.99212 -38.32133 21780 ft 402 kts
2026-04-30 10:43 -11.96402 -38.32242 22194 ft 404 kts
2026-04-30 10:44 -11.93613 -38.32351 22590 ft 407 kts
2026-04-30 10:44 -11.90776 -38.32462 23001 ft 409 kts
2026-04-30 10:44 -11.87908 -38.32574 23390 ft 412 kts
2026-04-30 10:44 -11.85064 -38.32687 23758 ft 414 kts
2026-04-30 10:45 -11.82169 -38.32802 24091 ft 416 kts
2026-04-30 10:45 -11.79242 -38.32919 24417 ft 419 kts
2026-04-30 10:45 -11.76351 -38.33035 24732 ft 421 kts
2026-04-30 10:45 -11.73395 -38.33148 25049 ft 423 kts
2026-04-30 10:46 -11.70467 -38.33257 25370 ft 426 kts
2026-04-30 10:46 -11.67490 -38.33367 25689 ft 428 kts
2026-04-30 10:46 -11.64486 -38.33483 25995 ft 430 kts
2026-04-30 10:46 -11.61505 -38.33601 26308 ft 433 kts
2026-04-30 10:47 -11.58469 -38.33722 26618 ft 435 kts
2026-04-30 10:47 -11.55468 -38.33839 26919 ft 437 kts
2026-04-30 10:47 -11.52410 -38.33960 27221 ft 439 kts
2026-04-30 10:47 -11.49337 -38.34078 27500 ft 442 kts
2026-04-30 10:48 -11.46291 -38.34191 27790 ft 444 kts
2026-04-30 10:48 -11.43186 -38.34309 28076 ft 446 kts
2026-04-30 10:48 -11.40069 -38.34431 28360 ft 449 kts
2026-04-30 10:48 -11.36928 -38.34555 28641 ft 451 kts
2026-04-30 10:49 -11.33813 -38.34678 28919 ft 453 kts
2026-04-30 10:49 -11.30643 -38.34803 29206 ft 455 kts
2026-04-30 10:49 -11.27467 -38.34927 29489 ft 458 kts 360°
2026-04-30 10:49 -11.24256 -38.35051 29764 ft 460 kts 360°
2026-04-30 10:50 -11.21079 -38.35173 30012 ft 462 kts 360°
2026-04-30 10:50 -11.17855 -38.35296 30235 ft 465 kts 360°
2026-04-30 10:50 -11.14613 -38.35419 30448 ft 466 kts 360°
2026-04-30 10:50 -11.11358 -38.35545 30671 ft 468 kts 360°
2026-04-30 10:51 -11.08135 -38.35669 30892 ft 469 kts 359°
2026-04-30 10:51 -11.04860 -38.35795 31115 ft 471 kts 359°
2026-04-30 10:51 -11.01566 -38.35925 31349 ft 472 kts 359°
2026-04-30 10:51 -10.98268 -38.36055 31676 ft 471 kts 359°
2026-04-30 10:52 -10.95033 -38.36182 31995 ft 470 kts 359°
2026-04-30 10:52 -10.91744 -38.36308 32309 ft 469 kts 359°
2026-04-30 10:52 -10.88514 -38.36431 32618 ft 468 kts 359°
2026-04-30 10:52 -10.85245 -38.36555 32936 ft 468 kts 359°
2026-04-30 10:53 -10.82017 -38.36678 33255 ft 467 kts 359°
2026-04-30 10:53 -10.78763 -38.36803 33587 ft 466 kts 359°
2026-04-30 10:53 -10.75510 -38.36928 33937 ft 465 kts 359°
2026-04-30 10:53 -10.72317 -38.37053 34218 ft 464 kts 359°
2026-04-30 10:54 -10.69066 -38.37179 34487 ft 464 kts 359°
2026-04-30 10:54 -10.65878 -38.37300 34757 ft 463 kts 359°
2026-04-30 10:54 -10.62641 -38.37423 34967 ft 464 kts 359°
2026-04-30 10:54 -10.59413 -38.37546 35040 ft 460 kts 359°
2026-04-30 10:55 -10.53072 -38.37795 35049 ft 455 kts 359°
2026-04-30 10:55 -10.46727 -38.38040 35054 ft 455 kts 359°
2026-04-30 10:56 -10.40412 -38.38275 35051 ft 454 kts 359°
2026-04-30 10:56 -10.34125 -38.38506 35051 ft 455 kts 359°
2026-04-30 10:57 -10.27772 -38.38820 35054 ft 455 kts 353°
2026-04-30 10:57 -10.21566 -38.40099 35053 ft 456 kts 348°
2026-04-30 10:58 -10.15359 -38.41466 35049 ft 456 kts 348°
2026-04-30 10:58 -10.09187 -38.42816 35048 ft 456 kts 348°
2026-04-30 10:59 -10.04020 -38.43947 35043 ft 456 kts 348°
2026-04-30 10:59 -9.97810 -38.45295 35043 ft 457 kts 348°
2026-04-30 11:00 -9.91609 -38.46643 35041 ft 457 kts 348°
2026-04-30 11:00 -9.85361 -38.48023 35050 ft 457 kts 348°
2026-04-30 11:01 -9.79118 -38.49160 35050 ft 457 kts 355°
2026-04-30 11:01 -9.72813 -38.49803 35050 ft 457 kts 355°
2026-04-30 11:02 -9.66483 -38.50479 35048 ft 457 kts 355°
2026-04-30 11:02 -9.60180 -38.51154 35046 ft 457 kts 355°
2026-04-30 11:03 -9.53839 -38.51821 35044 ft 457 kts 355°
2026-04-30 11:04 -9.44371 -38.52820 35041 ft 457 kts 355°
2026-04-30 11:04 -9.38066 -38.53479 35046 ft 457 kts 355°
2026-04-30 11:05 -9.31713 -38.54148 35048 ft 457 kts 355°
2026-04-30 11:05 -9.25416 -38.54813 35051 ft 457 kts 355°
2026-04-30 11:06 -9.19074 -38.55483 35048 ft 457 kts 355°
2026-04-30 11:06 -9.12779 -38.56141 35046 ft 457 kts 355°
2026-04-30 11:07 -9.06472 -38.56801 35045 ft 456 kts 355°
2026-04-30 11:07 -9.00139 -38.57461 35044 ft 456 kts 355°
2026-04-30 11:08 -8.93842 -38.58122 35042 ft 456 kts 355°
2026-04-30 11:08 -8.87538 -38.58783 35046 ft 456 kts 355°
2026-04-30 11:09 -8.81216 -38.59439 35047 ft 455 kts 355°
2026-04-30 11:09 -8.74928 -38.60104 35038 ft 455 kts 355°
2026-04-30 11:10 -8.68615 -38.60775 35033 ft 455 kts 355°
2026-04-30 11:10 -8.62309 -38.61438 35038 ft 455 kts 355°
2026-04-30 11:11 -8.55992 -38.62101 35036 ft 455 kts 355°
2026-04-30 11:11 -8.49712 -38.62751 35037 ft 455 kts 355°
2026-04-30 11:12 -8.43436 -38.63404 35037 ft 454 kts 355°
2026-04-30 11:12 -8.37132 -38.64065 35033 ft 454 kts 355°
2026-04-30 11:13 -8.30854 -38.64722 35031 ft 455 kts 355°
2026-04-30 11:13 -8.24557 -38.65386 35034 ft 454 kts 354°
2026-04-30 11:14 -8.18252 -38.66044 35038 ft 455 kts 355°
2026-04-30 11:14 -8.11940 -38.66699 35037 ft 455 kts 355°
2026-04-30 11:15 -8.05681 -38.67350 35037 ft 454 kts 355°
2026-04-30 11:15 -7.99361 -38.68017 35036 ft 455 kts 354°
2026-04-30 11:16 -7.93100 -38.68677 35025 ft 455 kts 354°
2026-04-30 11:16 -7.86797 -38.69338 35027 ft 454 kts 354°
2026-04-30 11:17 -7.80487 -38.69991 35029 ft 455 kts 354°
2026-04-30 11:17 -7.74218 -38.70646 35029 ft 455 kts 354°
2026-04-30 11:18 -7.67945 -38.71303 35028 ft 454 kts 354°
2026-04-30 11:18 -7.58489 -38.72282 35027 ft 454 kts 354°
2026-04-30 11:19 -7.52216 -38.72932 35026 ft 454 kts 354°
2026-04-30 11:19 -7.45913 -38.73590 35024 ft 454 kts 354°
2026-04-30 11:20 -7.39647 -38.74245 35029 ft 455 kts 354°
2026-04-30 11:20 -7.33336 -38.74905 35020 ft 455 kts 354°
2026-04-30 11:21 -7.27044 -38.75560 35018 ft 456 kts 354°
2026-04-30 11:21 -7.20717 -38.76218 35024 ft 456 kts 354°
2026-04-30 11:22 -7.14425 -38.76871 35030 ft 455 kts 354°
2026-04-30 11:22 -7.08140 -38.77527 35023 ft 456 kts 354°
2026-04-30 11:23 -7.01815 -38.78186 35021 ft 456 kts 354°
2026-04-30 11:24 -6.92382 -38.79164 35014 ft 455 kts 354°
2026-04-30 11:24 -6.86058 -38.79828 35015 ft 455 kts 354°
2026-04-30 11:25 -6.76592 -38.80805 35013 ft 455 kts 354°
2026-04-30 11:26 -6.64030 -38.82103 35019 ft 455 kts 354°
2026-04-30 11:26 -6.57714 -38.82767 35023 ft 455 kts 354°
2026-04-30 11:27 -6.51445 -38.83417 35021 ft 455 kts 354°
2026-04-30 11:27 -6.45129 -38.84073 35021 ft 454 kts 354°
2026-04-30 11:28 -6.35704 -38.85046 35014 ft 454 kts 354°
2026-04-30 11:29 -6.29443 -38.85692 35013 ft 453 kts 354°
2026-04-30 11:29 -6.20044 -38.86671 35003 ft 453 kts 354°
2026-04-30 11:30 -6.10657 -38.87644 34998 ft 453 kts 354°
2026-04-30 11:31 -6.04364 -38.88297 34998 ft 452 kts 354°
2026-04-30 11:31 -5.98113 -38.88943 34995 ft 452 kts 354°
2026-04-30 11:32 -5.91862 -38.89583 34986 ft 452 kts 354°
2026-04-30 11:32 -5.85616 -38.90230 34982 ft 452 kts 354°
2026-04-30 11:33 -5.76229 -38.91203 34972 ft 452 kts 353°
2026-04-30 11:33 -5.69982 -38.91854 34972 ft 452 kts 354°
2026-04-30 11:34 -5.63742 -38.92498 34967 ft 452 kts 354°
2026-04-30 11:34 -5.57463 -38.93141 34967 ft 452 kts 354°
2026-04-30 11:35 -5.51214 -38.93786 34958 ft 452 kts 354°
2026-04-30 11:35 -5.44939 -38.94439 34949 ft 456 kts 354°
2026-04-30 11:36 -5.41812 -38.94764 34347 ft 454 kts 354°
2026-04-30 11:36 -5.38659 -38.95092 33060 ft 458 kts 354°
2026-04-30 11:36 -5.35472 -38.95424 32011 ft 455 kts 355°
2026-04-30 11:36 -5.32355 -38.95748 31232 ft 453 kts 355°
2026-04-30 11:37 -5.29227 -38.96071 30719 ft 450 kts 355°
2026-04-30 11:37 -5.26107 -38.96391 30199 ft 447 kts 355°
2026-04-30 11:37 -5.23048 -38.96705 29639 ft 444 kts 356°
2026-04-30 11:37 -5.19980 -38.97021 29145 ft 438 kts 356°
2026-04-30 11:38 -5.16992 -38.97332 28664 ft 434 kts 356°
2026-04-30 11:38 -5.13999 -38.97643 28185 ft 425 kts 356°
2026-04-30 11:38 -5.11137 -38.97940 27734 ft 409 kts 356°
2026-04-30 11:38 -5.08338 -38.98232 27280 ft 394 kts 356°
2026-04-30 11:39 -5.05650 -38.98509 26838 ft 381 kts 357°
2026-04-30 11:39 -5.03083 -38.98771 26415 ft 369 kts 357°
2026-04-30 11:39 -5.00553 -38.99029 25997 ft 362 kts 357°
2026-04-30 11:39 -4.98031 -38.99287 25556 ft 362 kts 357°
2026-04-30 11:40 -4.95562 -38.99540 25122 ft 361 kts 357°
2026-04-30 11:40 -4.93060 -38.99797 24675 ft 361 kts 358°
2026-04-30 11:40 -4.90546 -39.00058 24216 ft 361 kts 358°
2026-04-30 11:40 -4.88034 -39.00321 23758 ft 362 kts 358°
2026-04-30 11:41 -4.85551 -39.00579 23249 ft 363 kts 358°
2026-04-30 11:41 -4.83037 -39.00839 22780 ft 361 kts 358°
2026-04-30 11:41 -4.80563 -39.01094 22326 ft 360 kts 358°
2026-04-30 11:41 -4.78061 -39.01352 21871 ft 358 kts 358°
2026-04-30 11:42 -4.75587 -39.01607 21429 ft 357 kts 358°
2026-04-30 11:42 -4.73111 -39.01864 20994 ft 356 kts 358°
2026-04-30 11:42 -4.70669 -39.02117 20556 ft 355 kts 358°
2026-04-30 11:42 -4.68200 -39.02371 20116 ft 355 kts 358°
2026-04-30 11:43 -4.65769 -39.02621 19681 ft 354 kts 358°
2026-04-30 11:43 -4.63308 -39.02873 19248 ft 354 kts 358°
2026-04-30 11:43 -4.60858 -39.03124 18814 ft 353 kts 358°
2026-04-30 11:43 -4.58402 -39.03377 18380 ft 354 kts 358°
2026-04-30 11:44 -4.55982 -39.03627 17909 ft 353 kts 358°
2026-04-30 11:44 -4.53528 -39.03880 17479 ft 352 kts 358°
2026-04-30 11:44 -4.51093 -39.04130 17054 ft 350 kts 358°
2026-04-30 11:44 -4.48698 -39.04376 16640 ft 349 kts 358°
2026-04-30 11:45 -4.46281 -39.04624 16223 ft 347 kts 358°
2026-04-30 11:45 -4.43869 -39.04872 15815 ft 346 kts 357°
2026-04-30 11:45 -4.42280 -39.05022 15543 ft 344 kts
2026-04-30 11:45 -4.39173 -39.04653 15008 ft 335 kts 21°
2026-04-30 11:46 -4.37059 -39.03714 14608 ft 329 kts 33°
2026-04-30 11:46 -4.35741 -39.02966 14344 ft 329 kts 33°
2026-04-30 11:46 -4.33089 -39.01472 13829 ft 329 kts 33°
2026-04-30 11:46 -4.31747 -39.00720 13516 ft 323 kts 32°
2026-04-30 11:47 -4.29834 -38.99654 13133 ft 310 kts 32°
2026-04-30 11:47 -4.27980 -38.98621 12764 ft 298 kts 33°
2026-04-30 11:47 -4.26198 -38.97630 12384 ft 289 kts 33°
2026-04-30 11:47 -4.24446 -38.96658 12015 ft 291 kts 32°
2026-04-30 11:48 -4.22685 -38.95679 11638 ft 291 kts 32°
2026-04-30 11:48 -4.20894 -38.94683 11254 ft 292 kts 32°
2026-04-30 11:48 -4.19134 -38.93706 10874 ft 292 kts 32°
2026-04-30 11:48 -4.17346 -38.92714 10481 ft 292 kts 32°
2026-04-30 11:49 -4.15588 -38.91739 10279 ft 285 kts 32°
2026-04-30 11:49 -4.13876 -38.90790 9780 ft 284 kts 31°
2026-04-30 11:49 -4.12158 -38.89838 9272 ft 276 kts 31°
2026-04-30 11:49 -4.10490 -38.88994 8895 ft 265 kts 22°
2026-04-30 11:50 -4.08733 -38.88404 8677 ft 276 kts 21°
2026-04-30 11:50 -4.06872 -38.87772 8354 ft 283 kts 21°
2026-04-30 11:50 -4.05023 -38.87142 8026 ft 284 kts 21°
2026-04-30 11:50 -4.03139 -38.86501 7685 ft 284 kts 22°
2026-04-30 11:51 -4.01267 -38.85867 7351 ft 283 kts 22°
2026-04-30 11:51 -3.99468 -38.85129 7022 ft 280 kts 33°
2026-04-30 11:51 -3.97866 -38.84037 6777 ft 278 kts 39°
2026-04-30 11:51 -3.96276 -38.82899 6526 ft 280 kts 39°
2026-04-30 11:52 -3.94705 -38.81781 6270 ft 280 kts 39°
2026-04-30 11:52 -3.93108 -38.80655 6010 ft 280 kts 39°
2026-04-30 11:52 -3.91513 -38.79531 5751 ft 279 kts 39°
2026-04-30 11:52 -3.89941 -38.78419 5498 ft 278 kts 39°
2026-04-30 11:53 -3.88358 -38.77296 5241 ft 278 kts 40°
2026-04-30 11:53 -3.86789 -38.76181 4996 ft 272 kts 40°
2026-04-30 11:53 -3.85279 -38.75112 4760 ft 265 kts 40°
2026-04-30 11:53 -3.83787 -38.74058 4511 ft 258 kts 40°
2026-04-30 11:54 -3.82284 -38.73104 4286 ft 254 kts 29°
2026-04-30 11:54 -3.80623 -38.72562 4045 ft 252 kts 20°
2026-04-30 11:54 -3.78946 -38.72107 3808 ft 246 kts 20°
2026-04-30 11:54 -3.77315 -38.71642 3582 ft 240 kts 26°
2026-04-30 11:55 -3.75881 -38.70846 3117 ft 239 kts 45°
2026-04-30 11:55 -3.74813 -38.69614 2850 ft 227 kts 65°
2026-04-30 11:55 -3.74236 -38.68224 2654 ft 206 kts 81°
2026-04-30 11:55 -3.74100 -38.66857 2446 ft 191 kts 97°
2026-04-30 11:56 -3.74329 -38.65587 2226 ft 186 kts 108°
2026-04-30 11:56 -3.74660 -38.64353 2007 ft 178 kts 108°
2026-04-30 11:56 -3.74970 -38.63191 1775 ft 165 kts 108°
2026-04-30 11:56 -3.75243 -38.62164 1636 ft 147 kts 108°
2026-04-30 11:57 -3.75500 -38.61200 1370 ft 139 kts 109°
2026-04-30 11:57 -3.75747 -38.60288 1182 ft 135 kts 108°
2026-04-30 11:57 -3.75990 -38.59378 1005 ft 134 kts 108°
2026-04-30 11:57 -3.76231 -38.58480 852 ft 137 kts 109°
2026-04-30 11:58 -3.76481 -38.57542 696 ft 139 kts 109°
2026-04-30 11:58 -3.76735 -38.56602 569 ft 138 kts 108°
2026-04-30 11:58 -3.76977 -38.55696 392 ft 135 kts 108°
2026-04-30 11:58 -3.77220 -38.54791 173 ft 133 kts 109°
2026-04-30 11:59 -3.77451 -38.53932 85 ft 117 kts 107°
2026-04-30 11:59 -3.77591 -38.53409 81 ft 47 kts 105°
2026-04-30 11:59 -3.77674 -38.53119 84 ft 40 kts 105°
2026-04-30 11:59 -3.77739 -38.52866 83 ft 35 kts 104°
2026-04-30 12:00 -3.77789 -38.52672 84 ft 20 kts 104°
2026-04-30 12:00 -3.77864 -38.52649 84 ft 15 kts 239°
2026-04-30 12:00 -3.77910 -38.52748 83 ft 16 kts 251°
2026-04-30 12:00 -3.77899 -38.52852 82 ft 14 kts 285°
2026-04-30 12:01 -3.77875 -38.52944 83 ft 13 kts 284°
2026-04-30 12:01 -3.77853 -38.53028 84 ft 12 kts 284°
2026-04-30 12:01 -3.77833 -38.53104 84 ft 13 kts 285°
2026-04-30 12:01 -3.77806 -38.53201 85 ft 14 kts 285°
2026-04-30 12:02 -3.77778 -38.53303 86 ft 20 kts 285°
2026-04-30 12:02 -3.77743 -38.53435 82 ft 19 kts 284°
2026-04-30 12:02 -3.77710 -38.53560 87 ft 18 kts 285°
2026-04-30 12:02 -3.77679 -38.53674 85 ft 16 kts 285°
2026-04-30 12:03 -3.77673 -38.53775 85 ft 14 kts 248°
2026-04-30 12:03 -3.77779 -38.53877 82 ft 5 kts 150°
2026-04-30 12:03 -3.77809 -38.53882 84 ft 5 kts 235°
2026-04-30 12:04 -3.77828 -38.53902 85 ft 3 kts 221°
2026-04-30 12:04 -3.77838 -38.53912 84 ft 0 kts 223°